Weather History for K79J - March, 2013

Change the Weather History Date:

Friday, March 29, 2013

  Actual Average (KCEW) Record (KCEW)
Temperature  
Mean Temperature 58 °F -  
Max Temperature 77 °F 74 °F 90 °F (2007)
Min Temperature 39 °F 54 °F 34 °F (2013)
Degree Days  
Heating Degree Days 7    
Growing Degree Days 8 (Base 50)    
Moisture  
Dew Point 35 °F    
Average Humidity 47    
Maximum Humidity 83    
Minimum Humidity 18    
Precipitation  
Precipitation 0.00 in - - ()
Sea Level Pressure  
Sea Level Pressure 30.26 in    
Wind  
Wind Speed 2 mph (WSW)    
Max Wind Speed 10 mph    
Max Gust Speed 17 mph    
Visibility 9 miles    
Events      
Averages and records for this station are not official NWS values.
T = Trace of Precipitation, MM = Missing Value Source: NWS Daily Summary

Daily Weather History Graph

Daily Weather History Graph

Search for Another Location

Airport or City:

Trip Planner

Search our weather history database for the weather conditions in past years. The results will help you decide how hot, cold, wet, or windy it might be!

Date:

Astronomy

Mar. 29, 2013 Rise Set
Actual Time 6:37 AM CDT 7:03 PM CDT
Civil Twilight 6:13 AM CDT 7:27 PM CDT
Nautical Twilight 5:44 AM CDT 7:56 PM CDT
Astronomical Twilight 5:16 AM CDT 8:25 PM CDT
Moon 9:49 PM CDT (3/29) 7:57 AM CDT (3/29)
Length of Visible Light 13h 14m
Length of Day
12h 25m
Waning Gibbous, 93% of the Moon is Illuminated
Mar 29
Waning Gibbous
Apr 2
Last Quarter
Apr 10
New
Apr 18
First Quarter
Apr 25
Full

Hourly Weather History & Observations

Time (CDT) Temp. Dew Point Humidity Pressure Visibility Wind Dir Wind Speed Gust Speed Precip Events Conditions
12:56 AM 46.9 °F 37.0 °F 68% 30.30 in 10.0 mi Calm Calm - N/A   Clear
1:56 AM 45.0 °F 37.0 °F 74% 30.30 in 10.0 mi Calm Calm - N/A   Clear
2:56 AM 43.0 °F 36.0 °F 76% 30.29 in 9.0 mi Calm Calm - N/A   Clear
3:56 AM 43.0 °F 36.0 °F 76% 30.28 in 8.0 mi Calm Calm - N/A   Clear
4:56 AM 41.0 °F 36.0 °F 82% 30.28 in 5.0 mi Calm Calm - N/A   Haze
5:56 AM 41.0 °F 35.1 °F 79% 30.30 in 5.0 mi Calm Calm - N/A   Haze
6:56 AM 39.9 °F 35.1 °F 83% 30.31 in 3.0 mi Calm Calm - N/A   Haze
7:56 AM 46.0 °F 39.0 °F 76% 30.32 in 7.0 mi Calm Calm - N/A   Clear
8:56 AM 55.9 °F 39.9 °F 55% 30.33 in 7.0 mi Variable 3.5 mph - N/A   Clear
9:56 AM 63.0 °F 37.0 °F 38% 30.33 in 10.0 mi SE 4.6 mph - N/A   Clear
10:56 AM 69.1 °F 35.1 °F 29% 30.32 in 10.0 mi WSW 3.5 mph - N/A   Clear
11:56 AM 71.1 °F 30.9 °F 23% 30.30 in 10.0 mi Variable 4.6 mph - N/A   Clear
12:56 PM 73.9 °F 32.0 °F 21% 30.25 in 10.0 mi WSW 9.2 mph - N/A   Clear
1:56 PM 75.9 °F 30.9 °F 19% 30.22 in 10.0 mi Variable 5.8 mph 16.1 mph N/A   Clear
2:56 PM 77.0 °F 30.9 °F 19% 30.20 in 10.0 mi West 10.4 mph 16.1 mph N/A   Clear
3:56 PM 77.0 °F 30.9 °F 19% 30.18 in 10.0 mi West 9.2 mph - N/A   Clear
4:56 PM 75.9 °F 28.9 °F 18% 30.17 in 10.0 mi West 10.4 mph - N/A   Clear
5:56 PM 73.0 °F 30.0 °F 20% 30.19 in 9.0 mi West 8.1 mph 17.3 mph N/A   Clear
6:56 PM 69.1 °F 30.9 °F 24% 30.20 in 9.0 mi WSW 5.8 mph - N/A   Clear
7:56 PM 64.0 °F 33.1 °F 31% 30.22 in 10.0 mi WSW 3.5 mph - N/A   Clear
8:56 PM 62.1 °F 35.1 °F 37% 30.23 in 10.0 mi WSW 3.5 mph - N/A   Mostly Cloudy
9:56 PM 61.0 °F 39.0 °F 44% 30.23 in 10.0 mi WSW 3.5 mph - N/A   Overcast
10:56 PM 59.0 °F 43.0 °F 55% 30.23 in 10.0 mi Calm Calm - N/A   Clear
11:56 PM 55.0 °F 43.0 °F 64% 30.23 in 10.0 mi Calm Calm - N/A   Clear